User: anonymous   Login
Location: Unspecified
(0.0000°N, 0.0000°E)
Time: 12:20:09
(UTC+00:00)
Language:

MUOS - Orbit

View from above orbital plane
View from above orbital plane
View from above satellite
View from above satellite

Ground track
Ground track

The orbit data is extracted from the following two-line orbital elements,

1 38093U 12009A   24260.92751729 -.00000132  00000-0  00000-0 0  9998
2 38093   4.2104  45.4164 0051613   3.5818 181.3157  1.00271818 46049
Epoch (UTC): 16 September 2024 22:15:37
Eccentricity: 0.0051613
inclination: 4.2104°
perigee height: 35568 km
apogee height: 36004 km
right ascension of ascending node: 45.4164°
argument of perigee: 3.5818°
revolutions per day: 1.00271818
mean anomaly at epoch: 181.3157°
orbit number at epoch: 4604

The dashed part of the orbit path shows where the satellite is in the earth's shadow,  

DLR